TimeMST,TemperatureF,Dew PointF,Humidity,Sea Level PressureIn,VisibilityMPH,Wind Direction,Wind SpeedMPH,Gust SpeedMPH,PrecipitationIn,Events,Conditions,WindDirDegrees,DateUTC
12:53 AM,36.0,17.1,46,30.02,10.0,NNW,12.7,-,N/A,,Clear,340,2014-01-20 07:53:00
1:53 AM,33.1,19.0,56,30.08,10.0,WNW,11.5,-,N/A,,Clear,300,2014-01-20 08:53:00
2:53 AM,36.0,19.9,52,30.12,10.0,NNW,13.8,-,N/A,,Overcast,330,2014-01-20 09:53:00
3:53 AM,34.0,21.0,59,30.21,10.0,NNW,16.1,-,N/A,,Scattered Clouds,330,2014-01-20 10:53:00
4:53 AM,33.1,21.0,61,30.25,10.0,NW,13.8,-,N/A,,Overcast,310,2014-01-20 11:53:00
5:53 AM,32.0,19.9,61,30.30,10.0,WNW,12.7,-,N/A,,Overcast,290,2014-01-20 12:53:00
6:53 AM,32.0,18.0,56,30.30,10.0,WNW,13.8,-,N/A,,Overcast,300,2014-01-20 13:53:00
7:53 AM,30.9,16.0,54,30.33,10.0,NW,12.7,-,N/A,,Clear,320,2014-01-20 14:53:00
8:53 AM,32.0,19.9,61,30.36,10.0,WNW,11.5,-,N/A,,Overcast,300,2014-01-20 15:53:00
9:53 AM,35.1,19.0,52,30.38,10.0,NW,20.7,-,N/A,,Partly Cloudy,310,2014-01-20 16:53:00
10:53 AM,37.0,18.0,46,30.40,10.0,NW,23.0,33.4,N/A,,Clear,310,2014-01-20 17:53:00
11:53 AM,37.0,17.1,44,30.39,10.0,NNW,21.9,28.8,N/A,,Clear,330,2014-01-20 18:53:00
12:53 PM,37.9,18.0,45,30.37,10.0,NW,18.4,26.5,N/A,,Clear,320,2014-01-20 19:53:00
1:53 PM,39.0,18.0,43,30.39,10.0,NW,18.4,25.3,N/A,,Clear,310,2014-01-20 20:53:00
2:53 PM,37.9,18.0,45,30.38,10.0,NNW,19.6,26.5,N/A,,Clear,330,2014-01-20 21:53:00
3:53 PM,37.9,19.0,47,30.39,10.0,NNW,13.8,-,N/A,,Clear,330,2014-01-20 22:53:00
4:53 PM,34.0,21.0,59,30.40,10.0,NW,10.4,-,N/A,,Clear,310,2014-01-20 23:53:00
5:53 PM,33.1,19.9,59,30.41,10.0,NNW,12.7,-,N/A,,Clear,330,2014-01-21 00:53:00
6:53 PM,28.9,19.9,69,30.43,10.0,NNW,4.6,-,N/A,,Clear,330,2014-01-21 01:53:00
7:53 PM,24.1,19.0,81,30.45,10.0,NW,5.8,-,N/A,,Clear,310,2014-01-21 02:53:00
8:53 PM,24.1,18.0,77,30.44,10.0,Calm,Calm,-,N/A,,Clear,0,2014-01-21 03:53:00
9:53 PM,21.9,17.1,82,30.40,10.0,Calm,Calm,-,N/A,,Clear,0,2014-01-21 04:53:00
10:53 PM,21.0,17.1,85,30.38,10.0,South,4.6,-,N/A,,Clear,170,2014-01-21 05:53:00
11:53 PM,21.0,17.1,85,30.35,10.0,Calm,Calm,-,N/A,,Clear,0,2014-01-21 06:53:00